#timestamp,LO_Frequency,Hit,StdDev 
1582218015.7,286047003.9,N
1582218035.5,286047001.4,N
1582218055.4,286047000.1,N
1582218075.2,286047000.0,N
1582218095.0,286047000.6,N
1582218095.9,286047000.6,N
1582218115.8,286047002.4,N
1582218135.6,286046999.7,N
1582218155.5,286046999.8,N
1582218175.3,286047001.4,N
1582218195.1,286047005.7,Y
1582218215.9,286047001.3,P
1582218235.7,286047003.7,P
1582218255.6,286047000.9,N
1582218275.4,286047001.2,N
1582218295.2,286047001.0,N
1582218315.1,286046998.8,N
1582218316.0,286046998.8,N
1582218335.8,286046998.8,N
1582218355.6,286047000.7,N
1582218375.5,286047001.1,N
1582218395.3,286046998.4,N
1582218415.2,286046999.9,N
1582218435.9,286047001.5,N
1582218455.7,286047002.1,N
1582218475.6,286047002.4,N
1582218495.4,286047000.9,N
1582218515.3,286047002.7,N
1582218535.1,286046999.8,N
1582218536.0,286046999.8,N
1582218555.8,286047000.4,N
1582218575.7,286047001.0,N
1582218595.5,286047000.8,N
1582218615.4,286046998.2,N
1582218635.2,286046998.8,N
1582218655.0,286046999.2,N
1582218655.9,286046999.2,N
1582218675.8,286046999.0,N
1582218695.6,286046999.1,N
1582218715.5,286046997.2,N
1582218735.3,286046997.2,N
1582218755.1,286046997.1,N
1582218775.9,286046996.5,N
1582218795.7,286046997.3,N
1582218815.6,286046997.8,N
1582218835.4,286046997.8,N
1582218855.2,286046994.9,Y
1582218875.1,286046996.2,P
1582218876.0,286046996.2,N
1582218895.8,286046995.1,P
1582218915.7,286046995.6,N
1582218935.5,286046995.0,Y
1582218955.3,286046998.2,P
1582218975.2,286046998.6,N
1582218995.0,286046999.2,N
1582218995.9,286046999.2,N
1582219015.7,286046999.0,N
1582219035.6,286046996.6,Y
1582219055.4,286047000.7,P
1582219075.3,286046998.6,N
1582219095.1,286046996.5,P
1582219115.8,286046997.2,N
1582219135.7,286047000.7,N
1582219155.5,286046999.5,N
1582219175.4,286046999.6,N
1582219195.2,286046996.5,N
1582219215.0,286046996.9,N
1582219215.9,286046996.9,N
1582219235.8,286046996.5,N
1582219255.6,286046996.8,N
1582219275.4,286046997.2,N
1582219295.3,286046997.8,N
1582219315.1,286046997.6,N
1582219335.9,286046995.3,Y
1582219355.7,286047001.1,P
1582219375.5,286046998.4,N
1582219395.4,286046996.7,N
1582219415.2,286046995.4,N
1582219435.1,286046996.1,N
1582219436.0,286046996.1,N
1582219455.8,286046997.1,N
1582219475.6,286046995.6,N
1582219495.5,286046994.2,Y
1582219515.3,286046997.5,P
1582219535.2,286046996.6,P
1582219555.9,286046999.3,N
1582219575.7,286046995.0,Y
1582219595.6,286046996.9,P
1582219615.4,286046997.3,P
1582219635.2,286046996.6,P
1582219655.1,286046995.3,Y
1582219656.0,286046995.3,P
1582219675.8,286046999.6,N
1582219695.7,286046995.2,N
1582219715.5,286046995.4,N
1582219735.4,286046996.6,N
1582219755.2,286046999.0,N
1582219775.0,286047001.1,N
1582219775.9,286047001.1,N
1582219795.8,286046998.7,N
1582219815.6,286047001.2,N
1582219835.4,286046999.1,N
1582219855.3,286047001.1,N
1582219875.1,286047001.1,N
1582219895.9,286047000.8,N
1582219915.7,286046998.7,N
1582219935.5,286046999.5,N
1582219955.4,286046996.6,N
1582219975.2,286046999.0,N
1582219995.1,286046998.5,N
1582219996.0,286046998.5,N
1582220015.8,286047001.6,N
1582220035.6,286047001.4,N
1582220055.5,286047001.6,N
1582220075.3,286046998.1,N
1582220095.1,286047002.6,N
1582220115.9,286047002.3,N
1582220135.7,286047004.4,N
1582220155.6,286047003.6,N
1582220175.4,286047003.5,N
1582220195.2,286047003.1,N
1582220215.1,286047003.3,N
1582220216.0,286047003.3,N
1582220235.8,286047003.2,N
1582220255.7,286047005.5,N
1582220275.5,286047005.4,N
1582220295.3,286047002.9,N
1582220315.2,286047006.0,N
1582220335.0,286047003.7,N
1582220335.9,286047003.7,N
1582220355.8,286047003.6,N
1582220375.6,286047005.9,N
1582220395.4,286047005.3,N
1582220415.3,286047003.1,N
1582220435.1,286047003.2,N
1582220455.8,286047004.8,N
1582220475.7,286047005.5,N
1582220495.5,286047007.5,Y
1582220515.4,286047004.0,P
1582220535.2,286047002.2,P
1582220555.0,286047003.7,P
1582220555.9,286047003.7,Y
1582220575.8,286047001.1,P
1582220595.6,286046998.8,N
1582220615.5,286047001.1,N
1582220635.3,286046998.7,N
1582220655.1,286047001.0,N
1582220675.9,286047000.7,N
1582220695.7,286047000.2,N
1582220715.6,286047000.2,N
1582220735.4,286047002.4,N
1582220755.2,286047000.1,N
1582220775.1,286047002.1,N
1582220776.0,286047002.1,N
1582220795.8,286047003.8,N
1582220815.6,286047001.5,N
1582220835.5,286047002.5,N
1582220855.3,286047004.4,Y
1582220875.2,286047002.1,P
1582220895.0,286047000.2,N
1582220895.9,286047000.2,N
1582220915.8,286047004.3,Y
1582220935.6,286047002.0,P
1582220955.4,286047002.1,P
1582220975.3,286047001.9,P
1582220995.1,286047005.5,Y
1582221015.8,286047004.4,P
1582221035.7,286047001.4,N
1582221055.5,286047002.4,N
1582221075.4,286047002.7,N
1582221095.2,286047002.7,N
1582221115.0,286047001.4,N
1582221115.9,286047001.4,N
1582221135.8,286047001.4,N
1582221155.6,286047002.6,N
1582221175.5,286047004.4,Y
1582221195.3,286046998.9,P
1582221215.1,286047000.9,N
1582221235.9,286046998.1,N
1582221255.7,286046999.2,N
1582221275.6,286046999.3,N
1582221295.4,286047001.2,N
1582221315.2,286047001.2,N
1582221335.1,286047002.5,N
1582221336.0,286047002.5,N
1582221355.8,286047001.7,N
1582221375.6,286047003.6,N
1582221395.5,286047003.5,N
1582221415.3,286047004.0,N
1582221435.2,286047003.9,N
1582221455.9,286047001.7,N
1582221475.7,286047001.7,N
1582221495.6,286047001.9,N
1582221515.4,286047002.0,N
1582221535.2,286047002.3,N
1582221555.1,286047000.4,N
1582221556.0,286047000.4,N
1582221575.8,286046999.8,N
1582221595.7,286047002.1,N
